TimeCST,TemperatureF,Dew PointF,Humidity,Sea Level PressureIn,VisibilityMPH,Wind Direction,Wind SpeedMPH,Gust SpeedMPH,PrecipitationIn,Events,Conditions,WindDirDegrees,DateUTC
12:53 AM,36.0,25.0,64,30.30,10.0,North,10.4,-,N/A,,Clear,10,2013-01-24 06:53:00
1:53 AM,36.0,23.0,59,30.32,10.0,North,13.8,21.9,N/A,,Clear,10,2013-01-24 07:53:00
2:53 AM,34.0,21.0,59,30.34,10.0,North,15.0,-,N/A,,Clear,10,2013-01-24 08:53:00
3:53 AM,33.1,18.0,54,30.36,10.0,NNE,12.7,20.7,N/A,,Clear,30,2013-01-24 09:53:00
4:53 AM,30.9,17.1,57,30.40,10.0,NNE,11.5,-,N/A,,Clear,30,2013-01-24 10:53:00
5:53 AM,28.9,17.1,61,30.44,10.0,NNE,13.8,-,N/A,,Clear,30,2013-01-24 11:53:00
6:53 AM,27.0,15.1,61,30.47,10.0,NE,13.8,23.0,N/A,,Clear,50,2013-01-24 12:53:00
7:53 AM,26.1,12.9,58,30.51,10.0,NNE,15.0,24.2,N/A,,Scattered Clouds,30,2013-01-24 13:53:00
8:53 AM,26.1,12.0,55,30.53,10.0,NNE,15.0,21.9,N/A,,Mostly Cloudy,30,2013-01-24 14:53:00
9:53 AM,26.1,12.9,58,30.56,10.0,NNE,13.8,-,N/A,,Clear,30,2013-01-24 15:53:00
10:53 AM,28.0,14.0,56,30.57,10.0,NE,12.7,-,N/A,,Clear,50,2013-01-24 16:53:00
11:53 AM,30.0,12.9,49,30.53,10.0,ENE,13.8,-,N/A,,Mostly Cloudy,70,2013-01-24 17:53:00
12:53 PM,30.0,12.0,47,30.50,10.0,NE,10.4,-,N/A,,Mostly Cloudy,40,2013-01-24 18:53:00
1:53 PM,30.9,12.0,46,30.45,10.0,NE,11.5,-,N/A,,Clear,50,2013-01-24 19:53:00
2:53 PM,30.9,10.9,43,30.43,10.0,East,11.5,-,N/A,,Mostly Cloudy,80,2013-01-24 20:53:00
3:53 PM,32.0,12.9,45,30.40,10.0,ENE,12.7,-,N/A,,Mostly Cloudy,70,2013-01-24 21:53:00
4:53 PM,32.0,15.1,50,30.40,10.0,ENE,8.1,-,N/A,,Overcast,60,2013-01-24 22:53:00
5:53 PM,32.0,15.1,50,30.39,10.0,ENE,8.1,-,N/A,,Overcast,60,2013-01-24 23:53:00
6:53 PM,32.0,16.0,52,30.38,10.0,ENE,9.2,-,N/A,,Overcast,70,2013-01-25 00:53:00
7:53 PM,32.0,17.1,54,30.36,10.0,ENE,10.4,-,N/A,,Overcast,70,2013-01-25 01:53:00
8:53 PM,33.1,18.0,54,30.33,10.0,East,9.2,-,N/A,,Overcast,80,2013-01-25 02:53:00
9:53 PM,33.1,17.1,52,30.32,10.0,ENE,5.8,-,N/A,,Overcast,60,2013-01-25 03:53:00
10:53 PM,33.1,17.1,52,30.29,10.0,East,6.9,-,N/A,,Overcast,80,2013-01-25 04:53:00
11:53 PM,33.1,17.1,52,30.27,10.0,East,6.9,-,N/A,,Overcast,90,2013-01-25 05:53:00